| time (UTC) | temp C | wind direction | speed KPH | gust KPH | rain 1hr cm | rain 24hr cm | rain mn cm | humidity % | barometer mb |
| 20260507051517 | 16 | 222 | 0.0 | 4.8 | 0.00 | 0.00 | 0.00 | 60 | 1010.5 |
| 20260507050021 | 17 | 359 | 0.0 | 1.6 | 0.00 | 0.00 | 0.00 | 59 | 1010.4 |
| 20260507044516 | 17 | 359 | 0.0 | 1.6 | 0.00 | 0.00 | 0.00 | 55 | 1010.3 |
| 20260507043021 | 17 | 224 | 0.0 | 4.8 | 0.00 | 0.00 | 0.00 | 55 | 1010.3 |
| 20260507041517 | 17 | 223 | 0.0 | 3.2 | 0.00 | 0.00 | 0.00 | 52 | 1009.9 |
| 20260507040015 | 17 | 213 | 0.0 | 3.2 | 0.00 | 0.00 | 0.00 | 53 | 1009.8 |
| 20260507034515 | 18 | 222 | 0.0 | 1.6 | 0.00 | 0.00 | 0.00 | 53 | 1009.6 |
| 20260507033014 | 18 | 234 | 0.0 | 3.2 | 0.00 | 0.00 | 0.00 | 53 | 1009.4 |
| 20260507031514 | 18 | 231 | 0.0 | 4.8 | 0.00 | 0.00 | 0.00 | 53 | 1009.4 |
| 20260507030013 | 19 | 228 | 0.0 | 3.2 | 0.00 | 0.00 | 0.00 | 48 | 1009.3 |
| 20260507024513 | 20 | 216 | 0.0 | 3.2 | 0.00 | 0.00 | 0.00 | 45 | 1009.1 |
| 20260507023012 | 21 | 208 | 0.0 | 1.6 | 0.00 | 0.00 | 0.00 | 41 | 1009.1 |
| 20260507021511 | 23 | 189 | 0.0 | 3.2 | 0.00 | 0.00 | 0.00 | 35 | 1009.0 |
| 20260507020013 | 25 | 51 | 0.0 | 3.2 | 0.00 | 0.00 | 0.00 | 21 | 1009.0 |
| 20260507014510 | 26 | 60 | 0.0 | 1.6 | 0.00 | 0.00 | 0.00 | 22 | 1009.0 |
| 20260507013017 | 26 | 9 | 0.0 | 9.7 | 0.00 | 0.00 | 0.00 | 22 | 1008.9 |
| 20260507011511 | 26 | 23 | 0.0 | 6.4 | 0.00 | 0.00 | 0.00 | 22 | 1008.9 |
| 20260507010010 | 25 | 8 | 0.0 | 6.4 | 0.00 | 0.00 | 0.00 | 22 | 1008.9 |
| 20260507004506 | 26 | 26 | 0.0 | 4.8 | 0.00 | 0.00 | 0.00 | 21 | 1008.9 |
| 20260507003006 | 26 | 4 | 0.0 | 8.0 | 0.00 | 0.00 | 0.00 | 22 | 1009.0 |
| 20260507001504 | 26 | 346 | 0.0 | 3.2 | 0.00 | 0.00 | 0.00 | 22 | 1009.0 |
| 20260507000003 | 26 | 42 | 0.0 | 4.8 | 0.00 | 0.00 | 0.00 | 21 | 1009.0 |
| 20260506234601 | 26 | 63 | 0.0 | 3.2 | 0.00 | 0.00 | 0.00 | 21 | 1009.0 |
| 20260506233112 | 25 | 326 | 0.0 | 4.8 | 0.00 | 0.00 | 0.00 | 22 | 1009.1 |
| 20260506231602 | 26 | 347 | 0.0 | 3.2 | 0.00 | 0.00 | 0.00 | 21 | 1009.3 |
| 20260506230057 | 26 | 33 | 0.0 | 3.2 | 0.00 | 0.00 | 0.00 | 21 | 1009.3 |
| 20260506224555 | 26 | 359 | 0.0 | 9.7 | 0.00 | 0.00 | 0.00 | 23 | 1009.6 |
| 20260506223052 | 25 | 58 | 0.0 | 3.2 | 0.00 | 0.00 | 0.00 | 25 | 1009.7 |
| 20260506221549 | 25 | 354 | 0.0 | 6.4 | 0.00 | 0.00 | 0.00 | 26 | 1009.9 |
| 20260506220045 | 25 | 354 | 0.0 | 3.2 | 0.00 | 0.00 | 0.00 | 27 | 1010.1 |
| 20260506214543 | 24 | 74 | 0.0 | 4.8 | 0.00 | 0.00 | 0.00 | 28 | 1010.4 |
| 20260506213051 | 24 | 340 | 0.0 | 1.6 | 0.00 | 0.00 | 0.00 | 28 | 1010.7 |
| 20260506211534 | 24 | 330 | 0.0 | 0.0 | 0.00 | 0.00 | 0.00 | 29 | 1011.0 |
| 20260506210031 | 23 | 56 | 0.0 | 4.8 | 0.00 | 0.00 | 0.00 | 31 | 1011.3 |
| 20260506204530 | 22 | 95 | 0.0 | 4.8 | 0.00 | 0.00 | 0.00 | 31 | 1011.2 |
| 20260506203026 | 23 | 310 | 0.0 | 1.6 | 0.00 | 0.00 | 0.00 | 31 | 1011.5 |
| 20260506201524 | 23 | 15 | 0.0 | 4.8 | 0.00 | 0.00 | 0.00 | 31 | 1011.8 |
| 20260506200022 | 22 | 24 | 0.0 | 4.8 | 0.00 | 0.00 | 0.00 | 30 | 1011.8 |
| 20260506194519 | 22 | 78 | 0.0 | 3.2 | 0.00 | 0.00 | 0.00 | 33 | 1011.9 |
| 20260506193015 | 22 | 44 | 0.0 | 1.6 | 0.00 | 0.00 | 0.00 | 32 | 1012.1 |
| 20260506191512 | 21 | 359 | 0.0 | 1.6 | 0.00 | 0.00 | 0.00 | 34 | 1012.3 |
| 20260506190013 | 21 | 4 | 0.0 | 3.2 | 0.00 | 0.00 | 0.00 | 36 | 1012.6 |
| 20260506184506 | 20 | 326 | 0.0 | 1.6 | 0.00 | 0.00 | 0.00 | 36 | 1012.8 |
| 20260506183009 | 20 | 341 | 0.0 | 1.6 | 0.00 | 0.00 | 0.00 | 36 | 1012.9 |
| 20260506181623 | 19 | 340 | 0.0 | 3.2 | 0.00 | 0.00 | 0.00 | 38 | 1013.0 |
| 20260506180057 | 18 | 334 | 0.0 | 1.6 | 0.00 | 0.00 | 0.00 | 41 | 1013.1 |
| 20260506174553 | 17 | 329 | 0.0 | 0.0 | 0.00 | 0.00 | 0.00 | 44 | 1013.1 |
| 20260506173059 | 17 | 354 | 0.0 | 1.6 | 0.00 | 0.00 | 0.00 | 44 | 1013.1 |
| 20260506171546 | 17 | 51 | 0.0 | 1.6 | 0.00 | 0.00 | 0.00 | 47 | 1013.2 |
| 20260506170047 | 16 | 281 | 0.0 | 3.2 | 0.00 | 0.00 | 0.00 | 49 | 1013.2 |
| 20260506164546 | 15 | 282 | 0.0 | 0.0 | 0.00 | 0.00 | 0.00 | 51 | 1013.2 |
| 20260506163043 | 15 | 29 | 0.0 | 0.0 | 0.00 | 0.00 | 0.00 | 50 | 1013.3 |
| 20260506161539 | 14 | 4 | 0.0 | 1.6 | 0.00 | 0.00 | 0.00 | 54 | 1013.4 |
| 20260506160037 | 14 | 314 | 0.0 | 0.0 | 0.00 | 0.00 | 0.00 | 54 | 1013.4 |
| 20260506154536 | 14 | 304 | 0.0 | 0.0 | 0.00 | 0.00 | 0.00 | 53 | 1013.3 |
| 20260506153031 | 13 | 281 | 0.0 | 1.6 | 0.00 | 0.00 | 0.00 | 56 | 1013.2 |
| 20260506151529 | 12 | 189 | 0.0 | 0.0 | 0.00 | 0.00 | 0.00 | 58 | 1013.2 |
| 20260506150027 | 12 | 189 | 0.0 | 0.0 | 0.00 | 0.00 | 0.00 | 61 | 1013.1 |
| 20260506144522 | 11 | 359 | 0.0 | 0.0 | 0.00 | 0.00 | 0.00 | 64 | 1013.1 |
| 20260506143016 | 10 | 188 | 0.0 | 0.0 | 0.00 | 0.00 | 0.00 | 67 | 1013.0 |
| 20260506141513 | 9 | 359 | 0.0 | 1.6 | 0.00 | 0.00 | 0.00 | 69 | 1012.9 |
| 20260506140015 | 9 | 359 | 0.0 | 0.0 | 0.00 | 0.00 | 0.00 | 69 | 1013.0 |
| 20260506134508 | 8 | 359 | 0.0 | 0.0 | 0.00 | 0.00 | 0.00 | 71 | 1012.8 |
| 20260506133006 | 8 | 359 | 0.0 | 0.0 | 0.00 | 0.00 | 0.00 | 73 | 1012.7 |
| 20260506131505 | 7 | 214 | 0.0 | 0.0 | 0.00 | 0.00 | 0.00 | 74 | 1012.6 |
| 20260506130004 | 7 | 208 | 0.0 | 0.0 | 0.00 | 0.00 | 0.00 | 75 | 1012.4 |
| 20260506124501 | 7 | 224 | 0.0 | 0.0 | 0.00 | 0.00 | 0.00 | 77 | 1012.1 |
| 20260506123102 | 7 | 233 | 0.0 | 0.0 | 0.00 | 0.00 | 0.00 | 78 | 1012.0 |
| 20260506121559 | 7 | 233 | 0.0 | 0.0 | 0.00 | 0.00 | 0.00 | 78 | 1012.0 |
| 20260506120058 | 7 | 233 | 0.0 | 0.0 | 0.00 | 0.00 | 0.00 | 78 | 1012.1 |
| 20260506114601 | 7 | 232 | 0.0 | 0.0 | 0.00 | 0.00 | 0.00 | 79 | 1012.0 |
| 20260506113055 | 7 | 232 | 0.0 | 0.0 | 0.00 | 0.00 | 0.00 | 79 | 1012.0 |
| 20260506111553 | 7 | 235 | 0.0 | 0.0 | 0.00 | 0.00 | 0.00 | 79 | 1011.9 |
| 20260506110052 | 7 | 243 | 0.0 | 0.0 | 0.00 | 0.00 | 0.00 | 79 | 1011.9 |
| 20260506104557 | 7 | 228 | 0.0 | 0.0 | 0.00 | 0.00 | 0.00 | 79 | 1011.8 |
| 20260506103054 | 7 | 237 | 0.0 | 0.0 | 0.00 | 0.00 | 0.00 | 78 | 1011.7 |
| 20260506101548 | 7 | 239 | 0.0 | 0.0 | 0.00 | 0.00 | 0.00 | 79 | 1011.7 |
| 20260506100047 | 7 | 237 | 0.0 | 0.0 | 0.00 | 0.00 | 0.00 | 79 | 1011.7 |
| 20260506094546 | 7 | 239 | 0.0 | 1.6 | 0.00 | 0.00 | 0.00 | 78 | 1011.6 |
| 20260506093044 | 7 | 247 | 0.0 | 0.0 | 0.00 | 0.00 | 0.00 | 78 | 1011.7 |
| 20260506091551 | 7 | 239 | 0.0 | 0.0 | 0.00 | 0.00 | 0.00 | 78 | 1011.5 |
| 20260506090042 | 7 | 239 | 0.0 | 0.0 | 0.00 | 0.00 | 0.00 | 78 | 1011.5 |
| 20260506084546 | 7 | 237 | 0.0 | 0.0 | 0.00 | 0.00 | 0.00 | 77 | 1011.4 |
| 20260506083038 | 8 | 225 | 0.0 | 0.0 | 0.00 | 0.00 | 0.00 | 75 | 1011.5 |
| 20260506081537 | 8 | 231 | 0.0 | 4.8 | 0.00 | 0.00 | 0.00 | 75 | 1011.5 |
| 20260506073034 | 8 | 212 | 0.0 | 0.0 | 0.00 | 0.00 | 0.00 | 75 | 1011.7 |
| 20260506071532 | 8 | 222 | 0.0 | 1.6 | 0.00 | 0.00 | 0.00 | 75 | 1011.6 |
| 20260506061526 | 8 | 208 | 0.0 | 3.2 | 0.00 | 0.00 | 0.00 | 74 | 1011.3 |